UR5WGN-5 Weather Reports


Display with metric or nautical units.
time (UTC)temp
F
wind
direction
speed
MPH
gust
MPH
rain 1hr
in
rain 24hr
in
rain mn
in
humidity
%
barometer
mb
20190120051356 22 112 0.0 0.0 0.00 0.00 0.00 84 1006.9
20190120045855 22 112 0.0 0.0 0.00 0.00 0.00 84 1006.9
20190120044355 22 112 0.0 0.0 0.00 0.00 0.00 84 1006.9
20190120042854 22 112 0.0 0.0 0.00 0.00 0.00 84 1007.1
20190120041353 22 112 0.0 0.0 0.00 0.00 0.00 84 1007.2
20190120035852 22 112 0.0 0.0 0.00 0.00 0.00 84 1007.2
20190120034351 21 112 0.0 0.0 0.00 0.00 0.00 84 1007.3
20190120032850 21 112 0.0 0.0 0.00 0.00 0.00 84 1007.5
20190120031349 21 112 0.0 0.0 0.00 0.00 0.00 84 1007.3
20190120025849 21 112 0.0 0.0 0.00 0.00 0.00 84 1007.6
20190120024348 21 112 0.0 0.0 0.00 0.00 0.00 84 1007.7
20190120022847 21 112 0.0 0.0 0.00 0.00 0.00 84 1007.9
20190120021346 21 112 0.0 0.0 0.00 0.00 0.00 84 1008.1
20190120015845 21 112 0.0 0.0 0.00 0.00 0.00 84 1008.1
20190120014344 21 112 0.0 0.0 0.00 0.00 0.00 84 1008.5
20190120012843 21 112 0.0 0.0 0.00 0.00 0.00 84 1008.6
20190120011343 21 112 0.0 0.0 0.00 0.00 0.00 84 1008.8
20190120005842 21 112 0.0 0.0 0.00 0.00 0.00 84 1008.7
20190120004341 21 112 0.0 0.0 0.00 0.00 0.00 84 1009.1
20190120002840 21 112 0.0 0.0 0.00 0.00 0.00 84 1009.2
20190120001339 21 112 0.0 0.0 0.00 0.00 0.00 84 1009.1
20190119235838 22 112 0.0 0.0 0.00 0.00 0.00 83 1009.2
20190119234337 22 112 0.0 0.0 0.00 0.00 0.00 83 1009.0
20190119232836 22 112 0.0 0.0 0.00 0.00 0.00 83 1009.3
20190119231336 22 112 0.0 0.0 0.00 0.00 0.00 83 1009.5
20190119225835 22 112 0.0 0.0 0.00 0.00 0.00 83 1009.7
20190119224334 22 112 0.0 0.0 0.00 0.00 0.00 83 1009.7
20190119221502 23 112 0.0 0.0 0.00 0.00 0.00 83 1010.0
20190119220002 23 112 0.0 0.0 0.00 0.00 0.00 83 1009.9
20190119214501 23 112 0.0 0.0 0.00 0.00 0.00 83 1010.1
20190119213000 23 112 0.0 0.0 0.00 0.00 0.00 83 1010.1
20190119211459 23 112 0.0 0.0 0.00 0.00 0.00 82 1010.4
20190119205958 23 112 0.0 0.0 0.00 0.00 0.00 83 1010.3
20190119204457 23 112 0.0 0.0 0.00 0.00 0.00 83 1010.4
20190119202956 23 112 0.0 0.0 0.00 0.00 0.00 82 1010.5
20190119201456 23 112 0.0 0.0 0.00 0.00 0.00 82 1010.7
20190119195955 23 112 0.0 0.0 0.00 0.00 0.00 82 1010.7
20190119194454 23 112 0.0 0.0 0.00 0.00 0.00 82 1010.7
20190119192953 23 112 0.0 0.0 0.00 0.00 0.00 82 1010.7
20190119191452 23 112 0.0 0.0 0.00 0.00 0.00 81 1010.6
20190119185951 23 112 0.0 0.0 0.00 0.00 0.00 81 1010.6
20190119184450 23 112 0.0 0.0 0.00 0.00 0.00 80 1010.8
20190119182950 24 112 0.0 0.0 0.00 0.00 0.00 80 1010.7
20190119181449 24 112 0.0 0.0 0.00 0.00 0.00 81 1010.7
20190119175948 25 112 0.0 0.0 0.00 0.00 0.00 80 1010.7
20190119174447 25 112 0.0 0.0 0.00 0.00 0.00 79 1010.7
20190119172946 25 112 0.0 0.0 0.00 0.00 0.00 79 1011.0
20190119171445 26 112 0.0 0.0 0.00 0.00 0.00 79 1011.0
20190119165944 26 112 0.0 0.0 0.00 0.00 0.00 79 1011.0
20190119164443 26 112 0.0 0.0 0.00 0.00 0.00 77 1011.1
20190119162943 26 90 0.0 0.0 0.00 0.00 0.00 76 1010.8
20190119161442 27 90 0.0 0.0 0.00 0.00 0.00 76 1010.9
20190119155941 27 90 0.0 0.0 0.00 0.00 0.00 75 1010.8
20190119154440 28 90 0.0 0.0 0.00 0.00 0.00 74 1010.8
20190119152939 28 90 0.0 0.0 0.00 0.00 0.00 74 1010.8
20190119151438 29 90 0.0 0.0 0.00 0.00 0.00 72 1010.8
20190119145937 29 90 0.0 0.0 0.00 0.00 0.00 70 1010.8
20190119144437 30 112 0.0 0.0 0.00 0.00 0.00 69 1010.8
20190119142936 31 112 0.0 0.0 0.00 0.00 0.00 68 1011.0
20190119141435 31 112 0.0 0.0 0.00 0.00 0.00 67 1011.1
20190119135934 32 112 0.0 0.0 0.00 0.00 0.00 67 1011.1
20190119134433 32 135 0.0 0.0 0.00 0.00 0.00 68 1011.1
20190119132932 32 135 0.0 0.0 0.00 0.00 0.00 70 1011.1
20190119131432 32 135 0.0 0.0 0.00 0.00 0.00 70 1011.2
20190119125931 33 135 0.0 0.0 0.00 0.00 0.00 70 1011.4
20190119124430 33 135 0.0 0.0 0.00 0.00 0.00 71 1011.4
20190119122929 33 135 0.0 0.0 0.00 0.00 0.00 71 1011.3
20190119121428 32 135 0.0 0.0 0.00 0.00 0.00 71 1011.4
20190119115927 32 225 0.0 0.0 0.00 0.00 0.00 72 1011.6
20190119114426 32 225 0.0 0.0 0.00 0.00 0.00 72 1011.5
20190119112925 32 225 0.0 0.0 0.00 0.00 0.00 73 1011.6
20190119111425 31 225 0.0 0.0 0.00 0.00 0.00 74 1011.8
20190119105924 31 225 0.0 0.0 0.00 0.00 0.00 75 1012.0
20190119104423 31 225 0.0 0.0 0.00 0.00 0.00 76 1012.3
20190119102922 31 225 0.0 0.0 0.00 0.00 0.00 78 1012.2
20190119101421 30 225 0.0 0.0 0.00 0.00 0.00 78 1012.4
20190119095920 30 247 0.0 0.0 0.00 0.00 0.00 79 1012.4
20190119094419 29 225 0.0 0.0 0.00 0.00 0.00 80 1012.7
20190119092919 29 202 0.0 0.0 0.00 0.00 0.00 81 1012.7
20190119091418 28 202 0.0 0.0 0.00 0.00 0.00 82 1012.8
20190119085917 28 202 0.0 0.0 0.00 0.00 0.00 83 1012.8
20190119084416 27 225 0.0 0.0 0.00 0.00 0.00 83 1012.7
20190119082915 26 225 0.0 0.0 0.00 0.00 0.00 83 1012.6
20190119081414 25 247 0.0 0.0 0.00 0.00 0.00 83 1012.6
20190119075914 25 225 0.0 0.0 0.00 0.00 0.00 83 1012.3
20190119074412 24 225 0.0 0.0 0.00 0.00 0.00 83 1012.3
20190119072912 23 225 0.0 0.0 0.00 0.00 0.00 83 1012.1
20190119071411 22 247 0.0 0.0 0.00 0.00 0.00 83 1012.0
20190119065910 22 270 0.0 0.0 0.00 0.00 0.00 83 1011.9
20190119064409 22 292 0.0 0.0 0.00 0.00 0.00 82 1011.8
20190119062908 22 292 0.0 0.0 0.00 0.00 0.00 82 1011.7
20190119061407 22 292 0.0 0.0 0.00 0.00 0.00 82 1011.8
20190119055906 22 292 0.0 0.0 0.00 0.00 0.00 82 1011.6
20190119054406 23 292 0.0 0.0 0.00 0.00 0.00 82 1011.7
20190119052905 23 292 0.0 0.0 0.00 0.00 0.00 82 1011.4